Preview of NWS' New Version of Forecast
This preview is not operational and should not be used for support decisions.

Regional Weather Roundup (RWR)

Issued by Gray - Portland, ME (GYX)

                            
000
ASUS41 KGYX 200010
RWRGYX
WEATHER ROUNDUP FOR MAINE AND NEW HAMPSHIRE
NATIONAL WEATHER SERVICE GRAY ME
800 PM EDT MON AUG 19 2019

MEZ002-005-006-010-012-015-018-020-021-024-026-027-029-200100-
MAINE
  
CITY           SKY/WX    TMP DP  RH WIND       PRES   REMARKS
PORTLAND       FAIR      78  71  79 SW5       29.89R                  
6HR MIN TEMP:  78; 6HR MAX TEMP:  84; 6HR PCP:  0.01;                

SANFORD        FAIR      75  73  93 CALM      29.90R                  
BAR HARBOR     LGT RAIN  69  68  96 SW6       29.87F                  
WISCASSET      FAIR      72  69  90 CALM      29.88S                  
6HR MIN TEMP:  72; 6HR MAX TEMP:  80; 6HR PCP: TRACE;                

ROCKLAND       FAIR      69  67  93 S3        29.87S                  
FRYEBURG       FAIR      73  70  90 CALM      29.91R                  
6HR MIN TEMP:  71; 6HR MAX TEMP:  89; 6HR PCP:  0.17;                

LEWISTONAUBURN FAIR      71  70  96 CALM      29.89R                  
AUGUSTA        FAIR      72  71  97 CALM      29.89R                  
6HR MIN TEMP:  71; 6HR MAX TEMP:  83; 6HR PCP:  0.37;                

WATERVILLE     FAIR      70  70 100 CALM      29.86R                  
BANGOR         MOCLDY    71  69  93 S7        29.86S                  
6HR MIN TEMP:  71; 6HR MAX TEMP:  80; 6HR PCP:  0.01;                

GREENVILLE       N/A     69  65  86 CALM      29.89R                  
6HR MIN TEMP:  67; 6HR MAX TEMP:  73; 6HR PCP:  0.01;                

MILLINOCKET    FAIR      73  69  87 CALM      29.85F                  
6HR MIN TEMP:  72; 6HR MAX TEMP:  75; 6HR PCP: TRACE;                

HOULTON        MOCLDY    71  68  90 S3        29.84S                  
6HR MIN TEMP:  69; 6HR MAX TEMP:  71; 6HR PCP: TRACE;                

PRESQUE ISLE   FAIR      69  68  96 S7        29.83S                  
6HR MIN TEMP:  69; 6HR MAX TEMP:  73;                                

FRENCHVILLE    CLOUDY    68  67  96 S8        29.81S                  
6HR MIN TEMP:  68; 6HR MAX TEMP:  74; 6HR PCP:  0.22;                

CARIBOU        FAIR      70  67  90 S7        29.81S                  
6HR MIN TEMP:  70; 6HR MAX TEMP:  74; 6HR PCP:  0.05;                

$$

NHZ002-005-008-009-011-012-014-200100-
NEW HAMPSHIRE
  
CITY           SKY/WX    TMP DP  RH WIND       PRES   REMARKS
PORTSMOUTH     PTCLDY    76  72  86 SW5       29.89R                  
ROCHESTER      FAIR      76  71  85 CALM      29.90R                  
6HR MIN TEMP:  74; 6HR MAX TEMP:  90; 6HR PCP:  0.02;                

NASHUA         MOCLDY    76  74  93 VRB3      29.94R                  
MANCHESTER     FAIR      79  70  74 S6        29.91R                  
6HR MIN TEMP:  79; 6HR MAX TEMP:  92; 6HR PCP: TRACE;                

CONCORD        FAIR      79  65  62 SW5       29.92R                  
6HR MIN TEMP:  79; 6HR MAX TEMP:  90; 6HR PCP:  0.01;                

LACONIA        FAIR      79  67  66 SW10      29.93R                  
PLYMOUTH       FAIR      76  66  73 W3        29.92R                  
BERLIN         MOCLDY    73  66  78 CALM      29.93R                  
6HR MIN TEMP:  73; 6HR MAX TEMP:  84; 6HR PCP: TRACE;                

WHITEFIELD     FAIR      73  64  73 CALM      29.93R                  
6HR MIN TEMP:  73; 6HR MAX TEMP:  83;                                

JAFFREY        FAIR      71  67  87 CALM      29.99R                  
6HR MIN TEMP:  71; 6HR MAX TEMP:  87; 6HR PCP:  0.21;                

KEENE          FAIR      73  69  87 CALM      29.96R                  
LEBANON        FAIR      76  66  71 S8        29.93R                  
6HR MIN TEMP:  76; 6HR MAX TEMP:  88;                                

MT WASHINGTON  FOG       55  55 100 W44         N/A  VSB 0            
6HR MIN TEMP:  55; 6HR MAX TEMP:  58; 6HR PCP:  0.01;                

$$

VTZ005-007-008-200100-
VERMONT
  
CITY           SKY/WX    TMP DP  RH WIND       PRES   REMARKS
ST JOHNSBURY     N/A     76  67  73 MISG      29.90R                  
MONTPELIER     FAIR      76  63  64 W6        29.98R                  
BURLINGTON     FAIR      80  59  48 SW9       29.91R                  
$$

MAZ007-012-024-CTZ003-RIZ002-NYZ038-NYZ072-200100-
SOUTHERN NEW ENGLAND AND NY
  
CITY           SKY/WX    TMP DP  RH WIND       PRES   REMARKS
BOSTON         MOCLDY    82  66  58 W14       29.93R                  
WORCESTER      FAIR      71  69  93 SW6       29.99R                  
NANTUCKET      CLOUDY    74  73  97 W12       29.98R                  
PROVIDENCE     MOCLDY    72  70  93 S6        29.97F THUNDER          
HARTFORD       MOCLDY    80  70  71 S9        29.95R                  
ALBANY         FAIR      81  67  62 NW8       29.97R                  
NEW YORK CITY  MOCLDY    81  68  64 S6        29.96S                  
$$

ANZ081-ANZ082-ANZ150-NHZ014-MEZ023>029-200100-
COASTAL MARINE OBSERVATIONS
  
STATION/POSITION TIME  TEMP    WIND        PRES    WAVE
                       AIR SEA DIR/SP/G            HT/PER
                 (UTC) (F)     (DEG/KT/KT) (MB)    (FT/S)
MATINICUS ROCK   2350   64                 1011.6R
ISLE OF SHOALS   2300   78     220/  9/ 10 1011.4R
JEFFREYS LEDGE   2338      69                N/A     2/ 6
CASHES LEDGE BUO 2350   67 63  240/  6/  6 1012.9R   3/ 7
GEORGES BANK BUO 2350   73 71  210/  2/  4 1015.8R   3/11
$$

.............KEY..............
   WCI - WIND CHILL
   TC  - TEMPERATURE IN CELSIUS
   VSB - VISIBILITY IN MILES
   HX  - HEAT INDEX
   FAIR- INDICATES FEW OR NO CLOUDS BELOW 12,000 FT, WITH NO 
         SIGNIFICANT WEATHER AND/OR OBSTRUCTIONS TO VISIBILITY.